Year,Month,Day,Hour,Minute,Value (Times are PST for temperature in C)
2014,07,14,00,00,24.80
2014,07,14,00,01,24.80
2014,07,14,00,02,24.90
2014,07,14,00,03,25.00
2014,07,14,00,04,25.00
2014,07,14,00,05,25.20
2014,07,14,00,06,25.20
2014,07,14,00,07,25.20
2014,07,14,00,08,25.20
2014,07,14,00,09,25.10
2014,07,14,00,10,25.10
2014,07,14,00,11,25.10
2014,07,14,00,12,25.10
2014,07,14,00,13,25.20
2014,07,14,00,14,25.30
2014,07,14,00,15,25.30
2014,07,14,00,16,25.30
2014,07,14,00,17,25.30
2014,07,14,00,18,25.30
2014,07,14,00,19,25.30
2014,07,14,00,20,25.30
2014,07,14,00,21,25.20
2014,07,14,00,22,25.20
2014,07,14,00,23,25.20
2014,07,14,00,24,25.20
2014,07,14,00,25,25.20
2014,07,14,00,26,25.20
2014,07,14,00,27,25.20
2014,07,14,00,28,25.20
2014,07,14,00,29,25.20
2014,07,14,00,30,25.20
2014,07,14,00,31,25.20
2014,07,14,00,32,25.10
2014,07,14,00,33,25.10
2014,07,14,00,34,25.00
2014,07,14,00,35,25.00
2014,07,14,00,36,24.90
2014,07,14,00,37,24.90
2014,07,14,00,38,24.90
2014,07,14,00,39,24.90
2014,07,14,00,40,24.90
2014,07,14,00,41,24.90
2014,07,14,00,42,24.90
2014,07,14,00,43,24.90
2014,07,14,00,44,24.90
2014,07,14,00,45,24.90
2014,07,14,00,46,24.90
2014,07,14,00,47,24.80
2014,07,14,00,48,24.80
2014,07,14,00,49,24.80
2014,07,14,00,50,24.80
2014,07,14,00,51,24.80
2014,07,14,00,52,24.80
2014,07,14,00,53,24.80
2014,07,14,00,54,24.70
2014,07,14,00,55,24.70
2014,07,14,00,56,24.70
2014,07,14,00,57,24.70
2014,07,14,00,58,24.70
2014,07,14,00,59,24.70
2014,07,14,01,00,24.70
2014,07,14,01,01,24.60
2014,07,14,01,02,24.60
2014,07,14,01,03,24.60
2014,07,14,01,04,24.50
2014,07,14,01,05,24.50
2014,07,14,01,06,24.50
2014,07,14,01,07,24.60
2014,07,14,01,08,24.60
2014,07,14,01,09,24.60
2014,07,14,01,10,24.60
2014,07,14,01,11,24.60
2014,07,14,01,12,24.60
2014,07,14,01,13,24.60
2014,07,14,01,14,24.60
2014,07,14,01,15,24.50
2014,07,14,01,16,24.50
2014,07,14,01,17,24.50
2014,07,14,01,18,24.50
2014,07,14,01,19,24.40
2014,07,14,01,20,24.40
2014,07,14,01,21,24.40
2014,07,14,01,22,24.30
2014,07,14,01,23,24.30
2014,07,14,01,24,24.30
2014,07,14,01,25,24.20
2014,07,14,01,26,24.20
2014,07,14,01,27,24.10
2014,07,14,01,28,24.10
2014,07,14,01,29,23.90
2014,07,14,01,30,23.80
2014,07,14,01,31,23.70
2014,07,14,01,32,23.50
2014,07,14,01,33,23.20
2014,07,14,01,34,23.00
2014,07,14,01,35,22.90
2014,07,14,01,36,22.80
2014,07,14,01,37,22.70
2014,07,14,01,38,22.70
2014,07,14,01,39,22.70
2014,07,14,01,40,22.80
2014,07,14,01,41,22.80
2014,07,14,01,42,22.90
2014,07,14,01,43,23.00
2014,07,14,01,44,23.00
2014,07,14,01,45,23.00
2014,07,14,01,46,23.00
2014,07,14,01,47,22.90
2014,07,14,01,48,22.90
2014,07,14,01,49,22.90
2014,07,14,01,50,22.90
2014,07,14,01,51,22.90
2014,07,14,01,52,23.00
2014,07,14,01,53,23.00
2014,07,14,01,54,23.00
2014,07,14,01,55,23.00
2014,07,14,01,56,23.00
2014,07,14,01,57,23.00
2014,07,14,01,58,23.00
2014,07,14,01,59,23.10
2014,07,14,02,00,23.10
2014,07,14,02,01,23.10
2014,07,14,02,02,23.10
2014,07,14,02,03,23.10
2014,07,14,02,04,23.10
2014,07,14,02,05,23.10
2014,07,14,02,06,23.10
2014,07,14,02,07,23.10
2014,07,14,02,08,23.10
2014,07,14,02,09,23.10
2014,07,14,02,10,23.10
2014,07,14,02,11,23.20
2014,07,14,02,12,23.20
2014,07,14,02,13,23.20
2014,07,14,02,14,23.20
2014,07,14,02,15,23.20
2014,07,14,02,16,23.10
2014,07,14,02,17,23.10
2014,07,14,02,18,23.10
2014,07,14,02,19,23.10
2014,07,14,02,20,23.00
2014,07,14,02,21,23.00
2014,07,14,02,22,22.90
2014,07,14,02,23,22.80
2014,07,14,02,24,22.80
2014,07,14,02,25,22.80
2014,07,14,02,26,22.70
2014,07,14,02,27,22.70
2014,07,14,02,28,22.70
2014,07,14,02,29,22.70
2014,07,14,02,30,22.70
2014,07,14,02,31,22.70
2014,07,14,02,32,22.70
2014,07,14,02,33,22.70
2014,07,14,02,34,22.70
2014,07,14,02,35,22.60
2014,07,14,02,36,22.60
2014,07,14,02,37,22.60
2014,07,14,02,38,22.60
2014,07,14,02,39,22.50
2014,07,14,02,40,22.40
2014,07,14,02,41,22.40
2014,07,14,02,42,22.40
2014,07,14,02,43,22.40
2014,07,14,02,44,22.40
2014,07,14,02,45,22.40
2014,07,14,02,46,22.30
2014,07,14,02,47,22.30
2014,07,14,02,48,22.20
2014,07,14,02,49,22.10
2014,07,14,02,50,22.10
2014,07,14,02,51,22.10
2014,07,14,02,52,22.00
2014,07,14,02,53,22.10
2014,07,14,02,54,22.20
2014,07,14,02,55,22.20
2014,07,14,02,56,22.20
2014,07,14,02,57,22.20
2014,07,14,02,58,22.20
2014,07,14,02,59,22.20
2014,07,14,03,00,22.10
2014,07,14,03,01,22.10
2014,07,14,03,02,22.10
2014,07,14,03,03,22.10
2014,07,14,03,04,22.10
2014,07,14,03,05,22.20
2014,07,14,03,06,22.20
2014,07,14,03,07,22.10
2014,07,14,03,08,22.10
2014,07,14,03,09,22.10
2014,07,14,03,10,22.10
2014,07,14,03,11,22.10
2014,07,14,03,12,22.00
2014,07,14,03,13,22.00
2014,07,14,03,14,21.90
2014,07,14,03,15,21.80
2014,07,14,03,16,21.80
2014,07,14,03,17,21.70
2014,07,14,03,18,21.70
2014,07,14,03,19,21.60
2014,07,14,03,20,21.60
2014,07,14,03,21,21.50
2014,07,14,03,22,21.50
2014,07,14,03,23,21.50
2014,07,14,03,24,21.50
2014,07,14,03,25,21.50
2014,07,14,03,26,21.50
2014,07,14,03,27,21.40
2014,07,14,03,28,21.40
2014,07,14,03,29,21.40
2014,07,14,03,30,21.40
2014,07,14,03,31,21.40
2014,07,14,03,32,21.40
2014,07,14,03,33,21.30
2014,07,14,03,34,21.30
2014,07,14,03,35,21.20
2014,07,14,03,36,21.20
2014,07,14,03,37,21.10
2014,07,14,03,38,21.10
2014,07,14,03,39,21.00
2014,07,14,03,40,20.90
2014,07,14,03,41,20.80
2014,07,14,03,42,20.70
2014,07,14,03,43,20.60
2014,07,14,03,44,20.50
2014,07,14,03,45,20.40
2014,07,14,03,46,20.40
2014,07,14,03,47,20.40
2014,07,14,03,48,20.50
2014,07,14,03,49,20.50
2014,07,14,03,50,20.50
2014,07,14,03,51,20.60
2014,07,14,03,52,20.60
2014,07,14,03,53,20.60
2014,07,14,03,54,20.70
2014,07,14,03,55,20.70
2014,07,14,03,56,20.70
2014,07,14,03,57,20.70
2014,07,14,03,58,20.60
2014,07,14,03,59,20.50
2014,07,14,04,00,20.50
2014,07,14,04,01,20.40
2014,07,14,04,02,20.40
2014,07,14,04,03,20.30
2014,07,14,04,04,20.30
2014,07,14,04,05,20.20
2014,07,14,04,06,20.20
2014,07,14,04,07,20.20
2014,07,14,04,08,20.10
2014,07,14,04,09,20.10
2014,07,14,04,10,20.20
2014,07,14,04,11,20.20
2014,07,14,04,12,20.20
2014,07,14,04,13,20.10
2014,07,14,04,14,20.10
2014,07,14,04,15,20.20
2014,07,14,04,16,20.20
2014,07,14,04,17,20.20
2014,07,14,04,18,20.10
2014,07,14,04,19,20.10
2014,07,14,04,20,20.10
2014,07,14,04,21,20.10
2014,07,14,04,22,20.10
2014,07,14,04,23,20.10
2014,07,14,04,24,20.10
2014,07,14,04,25,20.10
2014,07,14,04,26,20.10
2014,07,14,04,27,20.10
2014,07,14,04,28,20.10
2014,07,14,04,29,20.10
2014,07,14,04,30,20.10
2014,07,14,04,31,20.00
2014,07,14,04,32,20.00
2014,07,14,04,33,19.90
2014,07,14,04,34,19.90
2014,07,14,04,35,19.80
2014,07,14,04,36,19.80
2014,07,14,04,37,19.80
2014,07,14,04,38,19.70
2014,07,14,04,39,19.70
2014,07,14,04,40,19.70
2014,07,14,04,41,19.60
2014,07,14,04,42,19.50
2014,07,14,04,43,19.50
2014,07,14,04,44,19.40
2014,07,14,04,45,19.30
2014,07,14,04,46,19.30
2014,07,14,04,47,19.30
2014,07,14,04,48,19.20
2014,07,14,04,49,19.20
2014,07,14,04,50,19.20
2014,07,14,04,51,19.20
2014,07,14,04,52,19.20
2014,07,14,04,53,19.10
2014,07,14,04,54,19.10
2014,07,14,04,55,19.10
2014,07,14,04,56,19.10
2014,07,14,04,57,19.10
2014,07,14,04,58,19.10
2014,07,14,04,59,19.10
2014,07,14,05,00,19.10
2014,07,14,05,01,19.10
2014,07,14,05,02,19.10
2014,07,14,05,03,19.20
2014,07,14,05,04,19.20
2014,07,14,05,05,19.30
2014,07,14,05,06,19.30
2014,07,14,05,07,19.30
2014,07,14,05,08,19.40
2014,07,14,05,09,19.40
2014,07,14,05,10,19.40
2014,07,14,05,11,19.50
2014,07,14,05,12,19.50
2014,07,14,05,13,19.50
2014,07,14,05,14,19.50
2014,07,14,05,15,19.50
2014,07,14,05,16,19.60
2014,07,14,05,17,19.60
2014,07,14,05,18,19.70
2014,07,14,05,19,19.70
2014,07,14,05,20,19.80
2014,07,14,05,21,19.90
2014,07,14,05,22,19.90
2014,07,14,05,23,20.00
2014,07,14,05,24,20.00
2014,07,14,05,25,20.00
2014,07,14,05,26,20.00
2014,07,14,05,27,20.10
2014,07,14,05,28,20.10
2014,07,14,05,29,20.10
2014,07,14,05,30,20.10
2014,07,14,05,31,20.10
2014,07,14,05,32,20.10
2014,07,14,05,33,20.10
2014,07,14,05,34,20.10
2014,07,14,05,35,20.10
2014,07,14,05,36,20.10
2014,07,14,05,37,20.00
2014,07,14,05,38,19.90
2014,07,14,05,39,19.80
2014,07,14,05,40,19.70
2014,07,14,05,41,19.60
2014,07,14,05,42,19.50
2014,07,14,05,43,19.40
2014,07,14,05,44,19.40
2014,07,14,05,45,19.50
2014,07,14,05,46,19.60
2014,07,14,05,47,19.60
2014,07,14,05,48,19.70
2014,07,14,05,49,19.80
2014,07,14,05,50,19.80
2014,07,14,05,51,19.80
2014,07,14,05,52,19.80
2014,07,14,05,53,19.80
2014,07,14,05,54,19.80
2014,07,14,05,55,19.80
2014,07,14,05,56,19.80
2014,07,14,05,57,19.80
2014,07,14,05,58,19.70
2014,07,14,05,59,19.60
2014,07,14,06,00,19.50
2014,07,14,06,01,19.30
2014,07,14,06,02,19.10
2014,07,14,06,03,19.00
2014,07,14,06,04,18.90
2014,07,14,06,05,18.80
2014,07,14,06,06,18.70
2014,07,14,06,07,18.60
2014,07,14,06,08,18.60
2014,07,14,06,09,18.50
2014,07,14,06,10,18.50
2014,07,14,06,11,18.50
2014,07,14,06,12,18.40
2014,07,14,06,13,18.40
2014,07,14,06,14,18.30
2014,07,14,06,15,18.30
2014,07,14,06,16,18.20
2014,07,14,06,17,18.20
2014,07,14,06,18,18.20
2014,07,14,06,19,18.20
2014,07,14,06,20,18.10
2014,07,14,06,21,18.10
2014,07,14,06,22,18.10
2014,07,14,06,23,18.10
2014,07,14,06,24,18.00
2014,07,14,06,25,18.00
2014,07,14,06,26,18.00
2014,07,14,06,27,18.00
2014,07,14,06,28,18.10
2014,07,14,06,29,18.10
2014,07,14,06,30,18.20
2014,07,14,06,31,18.30
2014,07,14,06,32,18.30
2014,07,14,06,33,18.40
2014,07,14,06,34,18.50
2014,07,14,06,35,18.60
2014,07,14,06,36,18.60
2014,07,14,06,37,18.70
2014,07,14,06,38,18.70
2014,07,14,06,39,18.80
2014,07,14,06,40,18.80
2014,07,14,06,41,18.80
2014,07,14,06,42,18.80
2014,07,14,06,43,18.90
2014,07,14,06,44,18.90
2014,07,14,06,45,18.90
2014,07,14,06,46,19.00
2014,07,14,06,47,19.00
2014,07,14,06,48,19.00
2014,07,14,06,49,18.90
2014,07,14,06,50,18.90
2014,07,14,06,51,18.80
2014,07,14,06,52,18.80
2014,07,14,06,53,18.80
2014,07,14,06,54,18.80
2014,07,14,06,55,18.70
2014,07,14,06,56,18.70
2014,07,14,06,57,18.70
2014,07,14,06,58,18.70
2014,07,14,06,59,18.70
2014,07,14,07,00,18.60
2014,07,14,07,01,18.60
2014,07,14,07,02,18.70
2014,07,14,07,03,18.70
2014,07,14,07,04,18.70
2014,07,14,07,05,18.80
2014,07,14,07,06,18.80
2014,07,14,07,07,18.80
2014,07,14,07,08,18.90
2014,07,14,07,09,19.00
2014,07,14,07,10,19.10
2014,07,14,07,11,19.40
2014,07,14,07,12,19.60
2014,07,14,07,13,19.80
2014,07,14,07,14,19.90
2014,07,14,07,15,20.10
2014,07,14,07,16,20.10
2014,07,14,07,17,20.20
2014,07,14,07,18,20.30
2014,07,14,07,19,20.30
2014,07,14,07,20,20.30
2014,07,14,07,21,20.40
2014,07,14,07,22,20.40
2014,07,14,07,23,20.50
2014,07,14,07,24,20.60
2014,07,14,07,25,20.70
2014,07,14,07,26,20.80
2014,07,14,07,27,20.80
2014,07,14,07,28,20.80
2014,07,14,07,29,20.90
2014,07,14,07,30,20.90
2014,07,14,07,31,20.90
2014,07,14,07,32,20.90
2014,07,14,07,33,21.00
2014,07,14,07,34,21.00
2014,07,14,07,35,21.00
2014,07,14,07,36,21.00
2014,07,14,07,37,21.00
2014,07,14,07,38,21.10
2014,07,14,07,39,21.10
2014,07,14,07,40,21.10
2014,07,14,07,41,21.20
2014,07,14,07,42,21.20
2014,07,14,07,43,21.30
2014,07,14,07,44,21.30
2014,07,14,07,45,21.40
2014,07,14,07,46,21.40
2014,07,14,07,47,21.50
2014,07,14,07,48,21.60
2014,07,14,07,49,21.60
2014,07,14,07,50,21.70
2014,07,14,07,51,21.80
2014,07,14,07,52,21.90
2014,07,14,07,53,22.00
2014,07,14,07,54,22.10
2014,07,14,07,55,22.20
2014,07,14,07,56,22.20
2014,07,14,07,57,22.30
2014,07,14,07,58,22.40
2014,07,14,07,59,22.50
2014,07,14,08,00,22.60
2014,07,14,08,01,22.70
2014,07,14,08,02,22.70
2014,07,14,08,03,22.80
2014,07,14,08,04,22.80
2014,07,14,08,05,22.90
2014,07,14,08,06,22.90
2014,07,14,08,07,22.90
2014,07,14,08,08,22.90
2014,07,14,08,09,23.00
2014,07,14,08,10,23.00
2014,07,14,08,11,23.10
2014,07,14,08,12,23.10
2014,07,14,08,13,23.00
2014,07,14,08,14,23.00
2014,07,14,08,15,23.00
2014,07,14,08,16,23.00
2014,07,14,08,17,23.00
2014,07,14,08,18,22.90
2014,07,14,08,19,22.90
2014,07,14,08,20,22.90
2014,07,14,08,21,23.00
2014,07,14,08,22,23.00
2014,07,14,08,23,23.00
2014,07,14,08,24,23.00
2014,07,14,08,25,23.00
2014,07,14,08,26,23.00
2014,07,14,08,27,23.00
2014,07,14,08,28,23.00
2014,07,14,08,29,23.10
2014,07,14,08,30,23.10
2014,07,14,08,31,23.10
2014,07,14,08,32,23.10
2014,07,14,08,33,23.10
2014,07,14,08,34,23.10
2014,07,14,08,35,23.10
2014,07,14,08,36,23.10
2014,07,14,08,37,23.20
2014,07,14,08,38,23.20
2014,07,14,08,39,23.30
2014,07,14,08,40,23.30
2014,07,14,08,41,23.30
2014,07,14,08,42,23.40
2014,07,14,08,43,23.40
2014,07,14,08,44,23.40
2014,07,14,08,45,23.40
2014,07,14,08,46,23.40
2014,07,14,08,47,23.40
2014,07,14,08,48,23.40
2014,07,14,08,49,23.40
2014,07,14,08,50,23.40
2014,07,14,08,51,23.40
2014,07,14,08,52,23.40
2014,07,14,08,53,23.40
2014,07,14,08,54,23.40
2014,07,14,08,55,23.40
2014,07,14,08,56,23.40
2014,07,14,08,57,23.30
2014,07,14,08,58,23.30
2014,07,14,08,59,23.30
2014,07,14,09,00,23.30
2014,07,14,09,01,23.30
2014,07,14,09,02,23.30
2014,07,14,09,03,23.30
2014,07,14,09,04,23.20
2014,07,14,09,05,23.20
2014,07,14,09,06,23.20
2014,07,14,09,07,23.10
2014,07,14,09,08,23.10
2014,07,14,09,09,23.00
2014,07,14,09,10,23.00
2014,07,14,09,11,22.90
2014,07,14,09,12,22.80
2014,07,14,09,13,22.80
2014,07,14,09,14,22.70
2014,07,14,09,15,22.60
2014,07,14,09,16,22.60
2014,07,14,09,17,22.50
2014,07,14,09,18,22.50
2014,07,14,09,19,22.40
2014,07,14,09,20,22.30
2014,07,14,09,21,22.30
2014,07,14,09,22,22.30
2014,07,14,09,23,22.30
2014,07,14,09,24,22.30
2014,07,14,09,25,22.20
2014,07,14,09,26,22.20
2014,07,14,09,27,22.10
2014,07,14,09,28,22.10
2014,07,14,09,29,22.10
2014,07,14,09,30,22.10
2014,07,14,09,31,22.10
2014,07,14,09,32,22.10
2014,07,14,09,33,22.10
2014,07,14,09,34,22.10
2014,07,14,09,35,22.10
2014,07,14,09,36,22.20
2014,07,14,09,37,22.20
2014,07,14,09,38,22.30
2014,07,14,09,39,22.30
2014,07,14,09,40,22.40
2014,07,14,09,41,22.40
2014,07,14,09,42,22.50
2014,07,14,09,43,22.50
2014,07,14,09,44,22.60
2014,07,14,09,45,22.60
2014,07,14,09,46,22.70
2014,07,14,09,47,22.70
2014,07,14,09,48,22.70
2014,07,14,09,49,22.70
2014,07,14,09,50,22.70
2014,07,14,09,51,22.80
2014,07,14,09,52,22.80
2014,07,14,09,53,22.80
2014,07,14,09,54,22.80
2014,07,14,09,55,22.90
2014,07,14,09,56,22.90
2014,07,14,09,57,22.90
2014,07,14,09,58,23.00
2014,07,14,09,59,23.10
2014,07,14,10,00,23.10
2014,07,14,10,01,23.10
2014,07,14,10,02,23.20
2014,07,14,10,03,23.30
2014,07,14,10,04,23.30
2014,07,14,10,05,23.40
2014,07,14,10,06,23.40
2014,07,14,10,07,23.40
2014,07,14,10,08,23.50
2014,07,14,10,09,23.60
2014,07,14,10,10,23.70
2014,07,14,10,11,23.80
2014,07,14,10,12,23.90
2014,07,14,10,13,23.90
2014,07,14,10,14,24.00
2014,07,14,10,15,24.00
2014,07,14,10,16,24.10
2014,07,14,10,17,24.20
2014,07,14,10,18,24.30
2014,07,14,10,19,24.30
2014,07,14,10,20,24.20
2014,07,14,10,21,24.20
2014,07,14,10,22,24.10
2014,07,14,10,23,24.00
2014,07,14,10,24,23.90
2014,07,14,10,25,23.80
2014,07,14,10,26,23.70
2014,07,14,10,27,23.60
2014,07,14,10,28,23.40
2014,07,14,10,29,23.30
2014,07,14,10,30,23.30
2014,07,14,10,31,23.40
2014,07,14,10,32,23.50
2014,07,14,10,33,23.60
2014,07,14,10,34,23.60
2014,07,14,10,35,23.40
2014,07,14,10,36,23.30
2014,07,14,10,37,23.10
2014,07,14,10,38,22.80
2014,07,14,10,39,22.60
2014,07,14,10,40,22.50
2014,07,14,10,41,22.50
2014,07,14,10,42,22.40
2014,07,14,10,43,22.40
2014,07,14,10,44,22.40
2014,07,14,10,45,22.40
2014,07,14,10,46,22.50
2014,07,14,10,47,22.60
2014,07,14,10,48,22.60
2014,07,14,10,49,22.60
2014,07,14,10,50,22.70
2014,07,14,10,51,22.70
2014,07,14,10,52,22.70
2014,07,14,10,53,22.60
2014,07,14,10,54,22.50
2014,07,14,10,55,22.40
2014,07,14,10,56,22.40
2014,07,14,10,57,22.40
2014,07,14,10,58,22.50
2014,07,14,10,59,22.60
2014,07,14,11,00,22.70
2014,07,14,11,01,22.80
2014,07,14,11,02,22.80
2014,07,14,11,03,22.90
2014,07,14,11,04,23.00
2014,07,14,11,05,23.10
2014,07,14,11,06,23.10
2014,07,14,11,07,23.10
2014,07,14,11,08,23.10
2014,07,14,11,09,23.10
2014,07,14,11,10,23.20
2014,07,14,11,11,23.20
2014,07,14,11,12,23.30
2014,07,14,11,13,23.30
2014,07,14,11,14,23.40
2014,07,14,11,15,23.50
2014,07,14,11,16,23.60
2014,07,14,11,17,23.60
2014,07,14,11,18,23.60
2014,07,14,11,19,23.70
2014,07,14,11,20,23.80
2014,07,14,11,21,23.80
2014,07,14,11,22,23.90
2014,07,14,11,23,23.90
2014,07,14,11,24,24.00
2014,07,14,11,25,24.00
2014,07,14,11,26,24.00
2014,07,14,11,27,24.10
2014,07,14,11,28,24.10
2014,07,14,11,29,24.10
2014,07,14,11,30,24.10
2014,07,14,11,31,24.10
2014,07,14,11,32,24.10
2014,07,14,11,33,24.00
2014,07,14,11,34,24.00
2014,07,14,11,35,23.90
2014,07,14,11,36,23.80
2014,07,14,11,37,23.80
2014,07,14,11,38,23.90
2014,07,14,11,39,23.90
2014,07,14,11,40,23.90
2014,07,14,11,41,24.00
2014,07,14,11,42,24.00
2014,07,14,11,43,24.10
2014,07,14,11,44,24.10
2014,07,14,11,45,24.10
2014,07,14,11,46,24.20
2014,07,14,11,47,24.20
2014,07,14,11,48,24.30
2014,07,14,11,49,24.30
2014,07,14,11,50,24.30
2014,07,14,11,51,24.30
2014,07,14,11,52,24.30
2014,07,14,11,53,24.30
2014,07,14,11,54,24.30
2014,07,14,11,55,24.40
2014,07,14,11,56,24.40
2014,07,14,11,57,24.50
2014,07,14,11,58,24.60
2014,07,14,11,59,24.70
2014,07,14,12,00,24.70
2014,07,14,12,01,24.80
2014,07,14,12,02,24.80
2014,07,14,12,03,24.80
2014,07,14,12,04,24.80
2014,07,14,12,05,24.90
2014,07,14,12,06,24.90
2014,07,14,12,07,25.00
2014,07,14,12,08,25.10
2014,07,14,12,09,25.20
2014,07,14,12,10,25.20
2014,07,14,12,11,25.30
2014,07,14,12,12,25.30
2014,07,14,12,13,25.40
2014,07,14,12,14,25.40
2014,07,14,12,15,25.40
2014,07,14,12,16,25.30
2014,07,14,12,17,25.30
2014,07,14,12,18,25.30
2014,07,14,12,19,25.30
2014,07,14,12,20,25.30
2014,07,14,12,21,25.30
2014,07,14,12,22,25.40
2014,07,14,12,23,25.50
2014,07,14,12,24,25.60
2014,07,14,12,25,25.70
2014,07,14,12,26,25.80
2014,07,14,12,27,25.80
2014,07,14,12,28,25.80
2014,07,14,12,29,25.80
2014,07,14,12,30,25.70
2014,07,14,12,31,25.70
2014,07,14,12,32,25.60
2014,07,14,12,33,25.60
2014,07,14,12,34,25.70
2014,07,14,12,35,25.80
2014,07,14,12,36,25.80
2014,07,14,12,37,25.90
2014,07,14,12,38,25.90
2014,07,14,12,39,25.90
2014,07,14,12,40,26.00
2014,07,14,12,41,26.00
2014,07,14,12,42,26.10
2014,07,14,12,43,26.10
2014,07,14,12,44,26.20
2014,07,14,12,45,26.20
2014,07,14,12,46,26.20
2014,07,14,12,47,26.20
2014,07,14,12,48,26.30
2014,07,14,12,49,26.30
2014,07,14,12,50,26.40
2014,07,14,12,51,26.50
2014,07,14,12,52,26.60
2014,07,14,12,53,26.60
2014,07,14,12,54,26.60
2014,07,14,12,55,26.70
2014,07,14,12,56,26.70
2014,07,14,12,57,26.80
2014,07,14,12,58,26.80
2014,07,14,12,59,26.80
2014,07,14,13,00,26.80
2014,07,14,13,01,26.70
2014,07,14,13,02,26.60
2014,07,14,13,03,26.50
2014,07,14,13,04,26.50
2014,07,14,13,05,26.40
2014,07,14,13,06,26.40
2014,07,14,13,07,26.40
2014,07,14,13,08,26.50
2014,07,14,13,09,26.50
2014,07,14,13,10,26.60
2014,07,14,13,11,26.60
2014,07,14,13,12,26.60
2014,07,14,13,13,26.60
2014,07,14,13,14,26.50
2014,07,14,13,15,26.60
2014,07,14,13,16,26.80
2014,07,14,13,17,27.00
2014,07,14,13,18,27.20
2014,07,14,13,19,27.40
2014,07,14,13,20,27.50
2014,07,14,13,21,27.60
2014,07,14,13,22,27.60
2014,07,14,13,23,27.50
2014,07,14,13,24,27.40
2014,07,14,13,25,27.30
2014,07,14,13,26,27.20
2014,07,14,13,27,27.20
2014,07,14,13,28,27.20
2014,07,14,13,29,27.30
2014,07,14,13,30,27.30
2014,07,14,13,31,27.30
2014,07,14,13,32,27.30
2014,07,14,13,33,27.40
2014,07,14,13,34,27.40
2014,07,14,13,35,27.40
2014,07,14,13,36,27.40
2014,07,14,13,37,27.50
2014,07,14,13,38,27.60
2014,07,14,13,39,27.70
2014,07,14,13,40,27.70
2014,07,14,13,41,27.70
2014,07,14,13,42,27.70
2014,07,14,13,43,27.70
2014,07,14,13,44,27.70
2014,07,14,13,45,27.70
2014,07,14,13,46,27.80
2014,07,14,13,47,27.90
2014,07,14,13,48,27.90
2014,07,14,13,49,28.00
2014,07,14,13,50,28.00
2014,07,14,13,51,28.00
2014,07,14,13,52,28.00
2014,07,14,13,53,28.10
2014,07,14,13,54,28.20
2014,07,14,13,55,28.30
2014,07,14,13,56,28.30
2014,07,14,13,57,28.40
2014,07,14,13,58,28.40
2014,07,14,13,59,28.40
2014,07,14,14,00,28.40
2014,07,14,14,01,28.40
2014,07,14,14,02,28.40
2014,07,14,14,03,28.30
2014,07,14,14,04,28.30
2014,07,14,14,05,28.40
2014,07,14,14,06,28.40
2014,07,14,14,07,28.40
2014,07,14,14,08,28.40
2014,07,14,14,09,28.40
2014,07,14,14,10,28.40
2014,07,14,14,11,28.50
2014,07,14,14,12,28.70
2014,07,14,14,13,28.80
2014,07,14,14,14,28.90
2014,07,14,14,15,29.00
2014,07,14,14,16,29.00
2014,07,14,14,17,29.00
2014,07,14,14,18,29.00
2014,07,14,14,19,29.00
2014,07,14,14,20,29.10
2014,07,14,14,21,29.10
2014,07,14,14,22,29.10
2014,07,14,14,23,29.10
2014,07,14,14,24,29.20
2014,07,14,14,25,29.30
2014,07,14,14,26,29.30
2014,07,14,14,27,29.40
2014,07,14,14,28,29.30
2014,07,14,14,29,29.30
2014,07,14,14,30,29.30
2014,07,14,14,31,29.10
2014,07,14,14,32,28.90
2014,07,14,14,33,28.80
2014,07,14,14,34,28.80
2014,07,14,14,35,28.80
2014,07,14,14,36,28.90
2014,07,14,14,37,28.90
2014,07,14,14,38,28.90
2014,07,14,14,39,28.90
2014,07,14,14,40,28.90
2014,07,14,14,41,28.90
2014,07,14,14,42,28.90
2014,07,14,14,43,28.90
2014,07,14,14,44,28.90
2014,07,14,14,45,29.00
2014,07,14,14,46,29.10
2014,07,14,14,47,29.10
2014,07,14,14,48,29.20
2014,07,14,14,49,29.30
2014,07,14,14,50,29.40
2014,07,14,14,51,29.60
2014,07,14,14,52,29.70
2014,07,14,14,53,29.90
2014,07,14,14,54,29.90
2014,07,14,14,55,29.90
2014,07,14,14,56,29.90
2014,07,14,14,57,29.90
2014,07,14,14,58,29.90
2014,07,14,14,59,30.00
2014,07,14,15,00,30.00
2014,07,14,15,01,30.10
2014,07,14,15,02,30.20
2014,07,14,15,03,30.30
2014,07,14,15,04,30.30
2014,07,14,15,05,30.40
2014,07,14,15,06,30.50
2014,07,14,15,07,30.60
2014,07,14,15,08,30.60
2014,07,14,15,09,30.60
2014,07,14,15,10,30.60
2014,07,14,15,11,30.60
2014,07,14,15,12,30.70
2014,07,14,15,13,30.70
2014,07,14,15,14,30.70
2014,07,14,15,15,30.60
2014,07,14,15,16,30.60
2014,07,14,15,17,30.50
2014,07,14,15,18,30.40
2014,07,14,15,19,30.40
2014,07,14,15,20,30.50
2014,07,14,15,21,30.60
2014,07,14,15,22,30.70
2014,07,14,15,23,30.70
2014,07,14,15,24,30.70
2014,07,14,15,25,30.70
2014,07,14,15,26,30.80
2014,07,14,15,27,30.80
2014,07,14,15,28,30.80
2014,07,14,15,29,30.80
2014,07,14,15,30,30.90
2014,07,14,15,31,31.00
2014,07,14,15,32,30.90
2014,07,14,15,33,30.80
2014,07,14,15,34,30.80
2014,07,14,15,35,30.90
2014,07,14,15,36,31.00
2014,07,14,15,37,31.10
2014,07,14,15,38,31.10
2014,07,14,15,39,31.20
2014,07,14,15,40,31.20
2014,07,14,15,41,31.30
2014,07,14,15,42,31.30
2014,07,14,15,43,31.40
2014,07,14,15,44,31.50
2014,07,14,15,45,31.60
2014,07,14,15,46,31.60
2014,07,14,15,47,31.60
2014,07,14,15,48,31.70
2014,07,14,15,49,31.70
2014,07,14,15,50,31.70
2014,07,14,15,51,31.80
2014,07,14,15,52,31.80
2014,07,14,15,53,31.80
2014,07,14,15,54,31.90
2014,07,14,15,55,32.00
2014,07,14,15,56,32.10
2014,07,14,15,57,32.10
2014,07,14,15,58,32.10
2014,07,14,15,59,32.10
2014,07,14,16,00,32.10
2014,07,14,16,01,32.10
2014,07,14,16,02,32.00
2014,07,14,16,03,32.00
2014,07,14,16,04,32.00
2014,07,14,16,05,32.00
2014,07,14,16,06,32.10
2014,07,14,16,07,32.00
2014,07,14,16,08,32.00
2014,07,14,16,09,31.90
2014,07,14,16,10,31.80
2014,07,14,16,11,31.80
2014,07,14,16,12,31.80
2014,07,14,16,13,31.70
2014,07,14,16,14,31.80
2014,07,14,16,15,31.80
2014,07,14,16,16,31.80
2014,07,14,16,17,31.80
2014,07,14,16,18,31.80
2014,07,14,16,19,31.80
2014,07,14,16,20,31.90
2014,07,14,16,21,31.90
2014,07,14,16,22,31.90
2014,07,14,16,23,31.90
2014,07,14,16,24,32.00
2014,07,14,16,25,32.10
2014,07,14,16,26,32.20
2014,07,14,16,27,32.20
2014,07,14,16,28,32.10
2014,07,14,16,29,32.10
2014,07,14,16,30,32.00
2014,07,14,16,31,31.90
2014,07,14,16,32,31.90
2014,07,14,16,33,31.90
2014,07,14,16,34,31.90
2014,07,14,16,35,31.90
2014,07,14,16,36,31.90
2014,07,14,16,37,31.90
2014,07,14,16,38,31.80
2014,07,14,16,39,31.80
2014,07,14,16,40,31.90
2014,07,14,16,41,31.90
2014,07,14,16,42,31.90
2014,07,14,16,43,32.00
2014,07,14,16,44,32.00
2014,07,14,16,45,32.00
2014,07,14,16,46,32.00
2014,07,14,16,47,32.10
2014,07,14,16,48,32.10
2014,07,14,16,49,32.20
2014,07,14,16,50,32.20
2014,07,14,16,51,32.10
2014,07,14,16,52,32.10
2014,07,14,16,53,32.10
2014,07,14,16,54,32.20
2014,07,14,16,55,32.20
2014,07,14,16,56,32.20
2014,07,14,16,57,32.10
2014,07,14,16,58,32.00
2014,07,14,16,59,32.00
2014,07,14,17,00,31.90
2014,07,14,17,01,32.00
2014,07,14,17,02,32.00
2014,07,14,17,03,32.10
2014,07,14,17,04,32.10
2014,07,14,17,05,32.10
2014,07,14,17,06,32.10
2014,07,14,17,07,32.00
2014,07,14,17,08,31.90
2014,07,14,17,09,31.90
2014,07,14,17,10,31.90
2014,07,14,17,11,32.00
2014,07,14,17,12,32.10
2014,07,14,17,13,32.10
2014,07,14,17,14,32.20
2014,07,14,17,15,32.20
2014,07,14,17,16,32.30
2014,07,14,17,17,32.20
2014,07,14,17,18,32.20
2014,07,14,17,19,32.30